EHI
1 3 4 4 3 3 3 3 3 3 3 3 3 3 3 3 3 3 3 3 3 3 3 3 3 4 4 4 2 1 2 2 2 3 3 3 3 3 3 3 3 3 3
1 3 4 3 3 3 3 3 3 3 3 3 3 3 3 3 3 3 3 3 3 3 3 3 3 4 5 5 3 1 1 1 2 3 3 3 3 3 3 3 3 3 3
1 2 3 3 3 3 3 3 3 3 3 3 3 3 3 3 3 3 2 2 2 3 3 3 3 4 5 4 3 1 0 1 2 2 3 3 3 3 3 3 3 3 3
1 2 3 3 3 3 3 3 3 3 3 3 3 3 3 3 3 3 3 2 2 3 3 3 3 3 3 3 2 1 1 1 1 1 3 3 3 3 3 3 3 3 3
0 1 3 3 3 3 3 3 3 3 3 3 3 3 3 3 3 3 3 3 3 3 3 3 2 2 2 2 3 3 2 1 0 1 3 3 3 3 3 3 3 3 3
0 1 2 3 3 3 3 3 3 3 3 3 3 3 3 3 3 3 3 3 3 3 2 2 2 3 3 3 3 3 2 1 1 2 3 3 3 3 3 3 3 3 3
0 1 2 3 3 3 3 3 3 3 3 3 3 3 3 3 3 3 2 3 3 1 1 1 2 3 3 3 3 3 2 1 1 2 3 3 3 3 3 3 3 3 3
0 0 1 3 3 3 3 3 3 3 3 3 3 3 3 3 3 3 3 3 2 1 0 0 1 2 3 3 3 3 2 1 0 1 1 3 3 3 3 3 2 3 3
0 0 1 2 3 3 3 3 3 3 3 3 3 3 3 3 3 3 3 3 2 1 0 0 0 1 3 3 3 3 1 0 0 0 1 2 3 3 3 2 2 2 3
0 0 1 1 2 3 3 3 3 3 3 3 3 3 3 3 3 2 2 2 1 0 0 0 0 1 2 3 3 2 1 0 0 0 0 1 1 2 3 2 1 2 3
0 0 0 0 1 2 3 3 3 3 3 3 3 3 3 2 2 1 1 0 0 0 0 0 0 1 2 2 1 1 0 0 0 0 0 0 0 1 2 2 1 1 2
0 0 0 0 0 1 2 3 3 3 3 3 3 3 3 1 0 0 0 0 0 0 0 0 0 0 1 1 0 0 0 0 0 0 0 0 0 0 1 1 1 1 1
0 0 0 0 0 1 2 3 3 3 3 3 3 3 2 1 0 0 0 0 0 0 0 0 0 0 0 0 0 0 0 0 0 0 0 0 0 0 0 0 0 0 0
0 0 0 0 0 1 2 3 3 3 3 3 3 1 1 0 0 0 0 0 0 0 0 0 0 0 0 0 0 0 0 0 0 0 0 0 0 0 0 0 0 0 0
0 0 0 0 0 0 1 2 2 3 3 3 2 1 0 0 0 0 0 0 0 0 0 0 0 0 0 0 0 0 0 0 0 0 0 0 0 0 0 0 0 0 0
0 0 0 0 0 0 1 2 2 3 3 3 2 1 0 0 0 0 0 0 0 0 0 0 0 0 0 0 0 0 0 0 0 0 0 0 0 0 0 1 1 1 1
0 0 0 0 0 0 0 1 2 3 3 3 2 1 0 0 0 0 0 0 0 0 0 0 0 0 0 0 0 0 0 0 0 0 0 0 0 0 0 1 1 1 1
0 0 0 0 1 1 1 1 2 3 3 3 2 1 0 0 0 0 0 0 0 0 0 0 0 0 0 0 0 0 0 0 0 0 0 0 0 0 0 0 0 0 1
0 0 0 1 2 2 2 3 3 3 3 3 3 1 0 0 0 0 0 0 0 0 0 0 0 0 0 0 0 0 0 0 0 0 0 0 0 0 0 0 0 0 0
0 0 1 2 5 11 18 20 14 7 4 3 3 2 1 0 0 0 0 0 0 0 0 0 0 0 0 0 0 0 0 0 0 0 0 0 0 0 0 0 0 0 0
0 1 2 5 13 33 53 55 41 22 9 5 3 2 2 1 0 0 0 0 0 0 0 0 0 0 0 0 0 0 0 0 0 0 0 0 0 0 0 0 0 0 0
2 2 4 9 27 59 83 85 72 51 28 12 5 3 2 1 0 0 0 0 0 1 1 0 0 0 0 0 0 0 0 0 0 0 0 0 0 0 0 0 0 0 0
21 14 11 20 43 74 91 92 85 71 46 21 7 3 2 1 0 0 0 0 0 1 1 0 0 0 0 0 0 0 0 0 0 0 0 0 0 0 0 0 0 0 0
49 38 30 37 58 77 82 76 69 60 42 23 10 4 1 0 0 0 0 0 0 1 1 0 0 0 0 0 0 0 0 0 0 0 0 0 0 0 0 0 0 0 0
53 48 45 52 61 64 57 46 38 31 25 19 13 6 2 0 0 0 0 0 0 0 0 0 0 0 0 0 0 0 0 0 0 0 0 0 0 0 0 0 0 0 0
39 43 48 53 54 46 35 25 18 14 14 15 12 7 3 1 0 0 0 0 0 0 0 0 0 0 0 0 0 0 0 0 0 0 0 0 0 0 0 0 0 0 0
Wind_Speed
12 14 17 15 15 14 14 13 13 12 11 11 11 11 10 10 10 9 9 9 8 8 7 7 7 6 6 6 7 6 5 5 4 5 4 4 3 3 2 1 3 3 5
15 15 17 15 15 14 14 13 12 12 11 11 11 11 10 10 10 9 9 9 8 8 7 7 7 6 6 6 7 7 6 5 4 4 3 4 3 3 3 2 3 4 5
16 15 17 15 15 14 13 13 12 12 11 11 11 10 10 9 9 9 9 8 8 8 8 7 7 7 6 7 7 7 6 5 5 4 3 3 6 5 4 4 4 5 5
15 14 15 15 14 14 13 13 12 12 11 11 11 10 10 9 9 9 9 9 9 8 8 8 8 7 6 6 6 7 7 6 5 4 3 4 4 7 4 5 5 6 5
14 13 14 14 13 13 13 12 12 12 11 11 11 10 9 9 9 9 9 10 10 10 9 9 8 8 7 6 6 7 7 7 5 4 3 3 3 5 4 4 5 6 5
14 13 14 14 13 12 12 12 12 12 12 11 11 10 9 9 8 8 10 11 11 10 10 9 9 8 8 7 7 7 7 7 6 2 2 2 3 5 3 4 4 5 5
14 12 14 14 13 12 12 12 12 12 12 11 10 10 9 9 8 8 10 11 11 10 10 9 9 9 9 8 9 9 8 5 3 3 1 1 4 3 2 2 3 4 5
13 13 13 14 12 12 11 11 12 12 12 12 11 10 9 9 8 8 9 10 11 10 9 9 9 9 8 8 9 9 7 1 5 4 3 3 5 1 1 1 2 3 4
12 12 11 13 13 12 11 11 12 13 13 12 11 11 10 9 8 8 9 9 10 9 9 8 8 8 8 8 9 9 7 3 2 3 3 4 4 2 2 1 1 2 3
11 11 11 11 11 12 12 12 13 13 13 12 11 11 10 9 9 8 9 8 8 8 8 8 8 8 8 9 8 7 3 4 2 3 2 5 4 2 3 3 2 0 1
10 10 10 10 9 9 9 11 12 12 12 12 11 11 11 10 10 9 8 8 7 8 7 7 7 7 7 9 7 3 4 1 1 1 1 6 3 1 2 2 2 1 0
12 11 9 9 9 9 7 8 8 9 10 10 9 11 9 7 5 5 12 7 8 8 7 6 6 6 6 6 7 6 1 1 3 1 3 4 2 1 1 2 2 1 0
12 11 10 10 9 9 7 6 6 5 6 8 10 10 7 6 6 5 7 9 8 9 8 7 8 5 4 3 1 1 2 3 2 2 3 5 4 4 4 3 3 3 2
10 11 11 10 10 9 8 6 6 5 6 6 8 10 7 5 5 5 4 6 6 5 4 5 3 5 4 5 3 2 2 2 2 2 4 6 6 5 5 5 4 4 4
11 11 11 11 10 10 8 6 7 6 6 7 7 8 8 6 6 6 5 4 5 4 6 4 4 4 4 3 1 1 3 3 2 2 2 4 6 5 4 4 4 4 4
12 12 11 11 11 10 8 8 7 6 6 6 7 8 9 6 5 5 6 5 5 5 5 4 4 3 3 3 2 2 2 2 3 2 3 3 4 5 4 2 3 4 4
11 12 12 11 11 11 10 9 6 6 7 6 6 8 9 7 6 6 5 6 6 6 7 4 4 3 3 3 4 2 1 1 2 3 3 2 3 5 4 2 1 2 2
11 12 12 10 11 11 10 9 7 7 8 6 6 7 9 9 8 6 5 5 6 6 5 5 4 4 4 4 3 3 2 1 2 2 1 1 2 3 6 6 3 2 3
12 12 13 13 13 12 11 9 8 7 7 6 6 7 9 9 9 7 5 5 7 6 6 6 5 5 4 4 3 3 3 2 1 2 2 1 3 2 4 6 7 6 4
13 14 14 14 14 13 10 8 6 6 6 6 7 7 9 8 9 6 5 7 7 6 6 6 6 5 4 4 5 4 4 4 4 3 2 2 2 2 2 3 4 7 7
13 15 16 15 15 12 10 9 7 7 6 6 6 8 9 9 9 8 6 8 7 7 9 9 7 8 6 6 5 5 6 7 5 4 4 4 3 2 3 3 1 2 5
11 14 17 17 15 14 11 10 8 7 5 5 5 7 9 9 10 9 10 8 8 7 9 9 8 6 6 6 6 5 5 6 6 6 5 5 5 4 3 2 3 2 2
7 10 12 14 15 14 12 9 7 6 4 4 4 4 7 8 8 8 8 8 8 8 8 9 9 10 7 8 8 6 5 4 3 6 8 6 5 4 5 4 3 3 2
9 6 7 9 10 10 10 8 8 5 3 2 1 2 4 6 7 7 7 7 7 6 7 8 9 8 8 7 7 7 8 5 4 3 5 6 6 6 6 4 5 4 4
10 6 3 4 7 8 8 8 8 6 4 3 2 1 1 3 4 5 6 6 6 5 6 7 7 8 7 7 7 6 7 5 8 6 4 4 4 6 6 6 5 5 4
9 7 7 9 9 9 8 9 11 9 7 4 3 2 1 1 2 5 5 5 5 5 6 6 6 8 7 8 7 7 6 6 7 7 6 4 4 4 5 5 6 5 5
Wind_Direction
157 153 149 152 149 146 143 141 138 136 136 137 137 135 131 127 123 119 114 110 107 104 100 98 100 101 106 117 121 118 117 116 125 134 133 135 142 141 123 115 221 164 115
150 149 149 153 152 150 148 146 143 141 140 140 138 135 131 126 120 115 109 104 102 101 98 93 90 90 93 103 116 122 126 123 140 141 144 147 134 130 119 77 346 82 118
147 147 152 155 155 156 155 154 150 146 144 142 139 136 131 124 119 113 108 102 97 96 96 92 88 86 88 98 117 129 129 122 126 125 161 124 116 115 107 96 85 96 111
148 152 152 152 156 158 160 160 156 151 148 144 141 137 132 126 120 116 111 103 97 95 93 89 85 86 91 101 117 130 134 132 129 171 168 116 124 114 115 107 104 102 101
151 153 145 155 157 159 162 162 158 155 152 148 144 140 136 131 126 121 113 105 98 93 90 88 83 82 88 105 125 136 145 144 155 218 115 111 103 119 129 121 113 111 112
156 156 150 162 161 162 164 163 161 158 156 154 151 147 142 136 134 130 120 110 101 93 88 85 80 77 81 95 113 124 130 137 181 161 139 140 120 123 137 132 129 131 136
162 161 157 166 166 166 168 168 164 162 160 159 156 150 144 141 141 135 126 117 109 100 91 84 77 70 74 88 99 105 111 136 148 127 136 95 78 105 127 137 149 157 158
165 167 162 167 172 172 172 172 167 163 163 162 158 152 146 143 139 132 128 122 113 105 98 89 81 72 72 87 98 99 103 188 125 116 97 77 67 86 126 152 184 189 179
168 172 173 171 177 179 181 180 174 169 167 166 163 157 151 146 140 135 131 125 118 114 107 98 90 82 82 88 95 93 87 29 107 92 92 73 60 59 83 95 184 209 191
177 179 182 183 180 180 181 185 183 175 172 169 166 163 155 151 150 146 155 134 131 126 117 108 99 91 93 93 95 94 111 224 87 129 97 76 48 56 84 84 77 138 196
187 188 188 186 183 182 183 176 184 181 175 172 171 168 174 177 166 172 135 135 145 136 128 120 110 106 115 111 102 117 228 299 86 313 67 57 17 31 96 107 101 84 67
189 194 195 194 185 184 186 174 187 182 178 186 180 177 194 175 166 148 119 151 148 139 141 129 127 164 206 147 140 207 204 301 272 288 67 41 315 260 185 159 160 164 205
189 190 200 198 193 187 186 181 186 175 184 190 181 178 195 170 165 167 157 164 162 172 168 152 190 184 179 123 139 118 36 332 339 338 58 17 306 263 228 209 206 207 218
192 191 195 199 194 195 192 185 187 180 188 186 186 183 186 184 185 168 181 161 166 182 174 193 201 171 186 178 174 126 94 14 25 -0 53 19 336 291 254 229 216 208 216
191 195 194 197 200 195 194 193 189 191 194 190 186 190 189 187 191 169 179 175 191 179 180 200 213 176 198 178 141 79 62 46 42 23 71 58 7 346 299 253 224 218 223
196 198 192 197 199 199 193 199 194 189 196 201 188 199 194 191 195 181 187 181 190 191 191 197 186 175 191 177 166 98 31 39 34 39 32 107 82 24 358 287 232 228 226
204 203 196 200 199 201 202 201 191 191 194 203 196 204 199 194 197 196 195 184 188 192 192 202 170 184 170 171 182 184 148 12 349 26 31 19 98 93 48 20 214 209 183
215 213 201 199 205 201 201 200 196 198 196 202 196 206 209 199 203 201 197 194 193 192 195 193 205 194 184 199 197 191 200 179 258 12 311 72 56 74 88 62 60 90 139
232 221 211 205 207 202 199 200 202 200 196 202 205 204 210 209 209 204 202 201 193 199 204 204 208 214 209 209 213 208 231 231 255 259 252 53 84 78 97 97 84 63 78
249 233 220 209 208 201 195 198 194 202 199 201 208 210 211 212 217 212 207 210 203 204 212 218 210 223 233 224 227 218 228 233 232 241 269 255 227 109 77 103 130 97 74
256 241 226 215 206 199 189 188 186 194 198 204 211 215 213 215 219 218 222 216 210 214 218 223 220 221 223 221 228 225 220 228 234 206 228 234 209 160 206 154 127 140 123
258 247 235 217 208 198 191 186 186 182 187 196 212 218 219 219 222 223 221 220 219 223 227 229 223 226 221 214 227 238 238 210 212 217 212 228 229 189 224 200 182 182 188
286 261 244 225 206 196 187 175 162 150 145 166 198 211 220 221 221 223 225 219 223 221 223 226 224 224 221 221 229 232 250 257 215 194 208 213 221 221 220 215 214 188 175
340 309 257 220 194 179 170 167 154 144 142 166 186 204 216 219 216 215 220 218 219 221 224 227 227 229 226 223 226 238 250 266 259 224 198 214 214 224 228 206 229 214 197
-0 11 51 121 135 139 143 131 111 95 77 48 22 349 221 217 214 206 210 212 221 222 229 229 231 232 229 230 229 229 235 243 251 253 228 195 204 222 228 225 219 224 206
15 35 72 96 104 112 119 113 104 96 81 57 23 1 316 229 208 199 200 206 216 222 228 230 230 232 240 241 237 236 232 232 231 232 235 227 218 209 213 218 225 221 218